Regional Weather Roundup
Issued by NWS Newport/Morehead, NC

Current Version | Previous Version | Graphics & Text | Print | Product List | Glossary Off
Versions: 1 2 3 4 5 6 7 8 9 10 11 12 13 14 15 16 17 18 19 20 21 22 23 24 25 26 27 28 29 30 31 32 33 34 35 36 37 38 39 40 41 42 43 44 45 46 47 48 49 50

000
ASUS42 KMHX 301425
RWRMHX
WEATHER ROUNDUP FOR EASTERN NORTH CAROLINA
NATIONAL WEATHER SERVICE NEWPORT/MOREHEAD CITY NC
1000 AM EDT SAT JUL 30 2016

NOTE: "FAIR" INDICATES FEW OR NO CLOUDS BELOW 12,000 FEET
WITH NO SIGNIFICANT WEATHER AND/OR OBSTRUCTIONS TO VISIBILITY

NCZ015>017-031-032-045>047-102-103-301500-
NORTH COAST

CITY           SKY/WX    TMP DP  RH WIND       PRES   REMARKS
EDENTON        SUNNY     88  72  58 SE5       29.99S
ELIZABETH CITY MOSUNNY   86  75  69 E8        29.99S
KITTY HAWK     SUNNY     88  80  76 E6        29.99S HX 105
MANTEO         SUNNY     85  74  70 E7        30.00S

$$

NCZ045>047-081-094-103-104-301500-
CENTRAL COAST

CITY           SKY/WX    TMP DP  RH WIND       PRES   REMARKS
FRISCO         SUNNY     86  79  79 SE7       29.99R

$$

NCZ095-097-098-100-101-301500-
SOUTHERN COAST

CITY           SKY/WX    TMP DP  RH WIND       PRES   REMARKS
BEAUFORT       CLOUDY    85  77  77 SW7       29.98S
CEDAR ISLAND   NOT AVBL
JACKSONVILLE   SUNNY     87  77  72 VRB3      29.98S
PINEY ISLAND   NOT AVBL
WILMINGTON     SUNNY     88  78  72 W7        29.98F HX 101


$$

NCZ011>013-027>030-043-044-078>080-089-090>093-098-301500-
COASTAL PLAIN

CITY           SKY/WX    TMP DP  RH WIND       PRES   REMARKS
AHOSKIE        CLOUDY    83  75  77 SE3       29.98F
CLINTON        MOSUNNY   87  77  72 SW5       29.99S
ELIZABETHTOWN  MOSUNNY   89  75  63 SW5       29.99S
GOLDSBORO      CLOUDY    87  76  68 VRB6      29.97S
GREENVILLE     LGT RAIN  86  79  79 SE5       30.00S
HAVELOCK       CLOUDY    87  78  74 SW3       29.99S HX 100
KENANSVILLE    NOT AVBL
KINSTON        CLOUDY    84  75  74 CALM      29.99S
NEW BERN       PTSUNNY   87  76  69 S6        30.00R
RICHLANDS      PTSUNNY   89  78  70 VRB5      29.99S HX 103
ROCKY MOUNT    CLOUDY    82  78  88 S6        29.98S
WASHINGTON     SUNNY     87  77  72 S3        29.98S
WHITEVILLE     SUNNY     88  77  70 SW5       29.99S HX 100

$$

AMZ130-135-150-152-154-156-158-170-250-252-270-ANZ085-086-088-633-658-670-301500-
MARINE OBSERVATIONS

STATION/POSITION TIME  TEMP    WIND        PRES    WAVE   SWELL
                       AIR SEA DIR/SP/G            HT/PER HT/PER
                 (UTC) (F)     (DEG/KT/KT) (MB)    (FT/S) (FT/S)
CHESAPEAKE LIGHT NOT AVBL
64 E VA BEACH    1350   81 83   70/  6/  6 1015.9    3/ 6   3/ 6
DUCK             1400   86 75  100/  4/  4 1015.1
2 E DUCK         1311      81                N/A     2/ 7
OREGON INLET     1400   82 77   40/  5/  7 1015.5
13E OREGON INLT  1400      80                N/A     2/ 7   2/ 7
HATTERAS CG      1400   84 83  100/  7/  9 1015.2
DIAMOND BUOY     1350   85 86  110/  4/  6 1015.6    2/ 6   2/ 6
CAPE LOOKOUT     1400          160/  5     1015.2
BEAUFORT LAB     1400   85 83  210/  4/  5 1014.7
30 SE NEW RVR IN 1408   85 85  250/  8/ 12 1015.7
30 SE NEW RVR IN 1325      85                N/A     3/ 6
27 SE WRIGHTSVLE 1408   85 84  240/  8/ 10 1015.9
5 SE WRIGHTSVLE  1408   82 80  170/  4/  8 1016.5
225 S CAPE HAT   1350   84 85  210/ 10/ 12 1018.2    3/ 6   3/ 6
41 SE CHARLESTON 1350   86 85  260/ 12/ 14 1015.8    4/ 6   2/ 6

$$




USA.gov is the U.S. government's official web portal to all federal, state and local government web resources and services.